Flag for U.S.A. Weather past 2 weeks in Oceanside, California, U.S.A.

Now
70 °F

Sunny.


Feels Like: 77 °F
Forecast: 48 / 73 °F
Wind: 9 mph from Southwest

Location: Oceanside Weather Reporting Station

Current Time: Apr 18, 2015 at 10:40:12 AM

Latest Report: Apr 18, 2015 at 9:52 AM


Visibility: 10 mi

Pressure: 30.01 "Hg

Humidity: 41%

Dew point: 45 °F

Location of OceansideLocation

Historic Weather in Oceanside — Graph

°F

Oceanside temperature yesterday

Maximum temperature yesterday: 77 °F (at 10:52 AM)
Minimum temperature yesterday: 43 °F (at 4:52 AM)
Average temperature yesterday: 61 °F

Past Weeks' High & Low Weather Summary

 TemperatureHumidityPressure
High81 °F (Apr 3, 3:52 PM)93% (Apr 5, 12:52 AM)30.09 "Hg (Apr 5, 12:52 AM)
Low42 °F (Apr 18, 5:52 AM)6% (Apr 16, 11:52 AM)29.85 "Hg (Apr 5, 6:52 PM)
Average60 °F61%29.97 "Hg
* Reported Apr 3 8:52 AM — Apr 18 8:52 AM, Oceanside, Weather by CustomWeather, © 2015

Note: Actual official high and low records may vary slightly from our data, if they occured in-between our weather recording intervals... More about our weather records

Advertising

Oceanside weather history for previous 24 hours

 ConditionsComfort  
Time TempWeatherWind HumidityBarometerVisibility
8:52 AM
Sat, Apr 18
63 °FSunny.3 mph31%30.01 "Hg10 mi
7:52 AM54 °FSunny.3 mph45%30.02 "Hg10 mi
6:52 AM44 °FClear.No wind63%30.01 "Hg10 mi
5:52 AM42 °FClear.3 mph71%30.01 "Hg10 mi
4:52 AM45 °FClear.No wind63%30.00 "Hg10 mi
3:52 AM45 °FClear.No wind60%30.00 "Hg10 mi
2:52 AM46 °FClear.No wind66%30.00 "Hg10 mi
1:52 AM47 °FClear.No wind71%30.01 "Hg10 mi
12:52 AM51 °FClear.No wind66%30.02 "Hg10 mi
11:52 PM
Fri, Apr 17
52 °FClear.No wind64%30.02 "Hg10 mi
10:52 PM53 °FClear.3 mph61%30.01 "Hg10 mi
9:52 PM62 °FClear.No wind50%30.01 "Hg10 mi
8:52 PM62 °FClear.No wind46%29.99 "Hg10 mi
7:52 PM65 °FSunny.5 mph45%29.97 "Hg10 mi
6:52 PM69 °FSunny.7 mph29%29.94 "Hg10 mi
5:52 PM74 °FLight rain. Sunny.22 mph15%29.93 "Hg10 mi
4:52 PM74 °FLight rain. Sunny.10 mph31%29.94 "Hg10 mi
3:52 PM74 °FLight rain. Sunny.15 mph35%29.95 "Hg10 mi
2:52 PM74 °FSunny.13 mph37%29.97 "Hg10 mi
1:52 PM73 °FSunny.10 mph37%29.98 "Hg10 mi
12:52 PM75 °FSunny.10 mph27%30.00 "Hg10 mi
11:52 AM74 °FSunny.9 mph21%30.01 "Hg10 mi
10:52 AM77 °FSunny.7 mph19%30.02 "Hg10 mi
Weather by CustomWeather, © 2015

See weather overviewHow to use our weather pages